Location: Maccacari
(45.1333°N, 11.1333°E)
Time: 14:23:38
(UTC+00:00)

Explorer 7 - All Passes

Search period start: 23 January 2021 00:00
Search period end: 02 February 2021 00:00
Orbit: 484 x 678 km, 50.3° (Epoch: 22 January)

Date Brightness Start Highest point End Pass type
(mag) Time Alt. Az. Time Alt. Az. Time Alt. Az.
23 Jan - 02:48:36 10° SSE 02:50:12 12° SE 02:51:50 10° ESE visible
23 Jan - 04:26:12 10° SW 04:30:00 67° SSE 04:34:00 10° ENE visible
23 Jan - 06:06:51 10° W 06:10:39 45° N 06:14:42 10° ENE visible
23 Jan - 07:47:45 10° WNW 07:51:42 44° N 07:55:54 10° E daylight
23 Jan - 09:28:12 10° WNW 09:32:27 78° SSW 09:36:59 10° ESE daylight
23 Jan - 11:09:29 10° W 11:12:33 18° SW 11:15:44 10° S daylight
24 Jan - 02:51:42 10° S 02:54:31 20° SE 02:57:23 10° E visible
24 Jan - 04:30:43 10° WSW 04:34:33 85° NNW 04:38:36 10° ENE visible
24 Jan - 06:11:36 10° WNW 06:15:22 40° N 06:19:21 10° ENE visible
24 Jan - 07:52:22 10° WNW 07:56:23 51° NNE 08:00:40 10° E daylight
24 Jan - 09:32:49 10° WNW 09:36:59 54° SSW 09:41:24 10° SE daylight
24 Jan - 11:15:20 10° WSW 11:16:52 12° SW 11:18:26 10° SSW daylight
25 Jan - 02:55:31 10° SSW 02:58:52 31° SE 03:02:21 10° ENE visible
25 Jan - 04:35:21 10° WSW 04:39:09 63° NNW 04:43:10 10° ENE visible
25 Jan - 06:16:21 10° WNW 06:20:06 39° N 06:24:03 10° ENE daylight
25 Jan - 07:56:57 10° WNW 08:01:03 64° NNE 08:05:24 10° ESE daylight
25 Jan - 09:37:32 10° WNW 09:41:27 36° SW 09:45:35 10° SSE daylight
26 Jan - 02:59:40 10° SW 03:03:19 48° SE 03:07:06 10° ENE visible
26 Jan - 04:40:04 10° W 04:43:49 49° NNW 04:47:46 10° ENE visible
26 Jan - 06:21:02 10° WNW 06:24:49 40° N 06:28:48 10° ENE daylight
26 Jan - 08:01:31 10° WNW 08:05:39 84° NNE 08:10:02 10° ESE daylight
26 Jan - 09:42:24 10° W 09:45:52 24° SW 09:49:29 10° SSE daylight
27 Jan - 01:25:59 10° SSE 01:27:57 14° SE 01:29:57 10° E night (unlit)
27 Jan - 03:04:04 10° SW 03:07:49 74° SSE 03:11:44 10° ENE visible
27 Jan - 04:44:49 10° W 04:48:30 42° N 04:52:22 10° ENE visible
27 Jan - 06:25:41 10° WNW 06:29:31 44° NNE 06:33:35 10° E daylight
27 Jan - 08:06:05 10° WNW 08:10:12 70° SSW 08:14:35 10° SE daylight
27 Jan - 09:47:38 10° W 09:50:13 16° SW 09:52:54 10° S daylight
28 Jan - 01:29:20 10° S 01:32:17 22° SE 01:35:16 10° E night (unlit)
28 Jan - 03:08:36 10° WSW 03:12:23 78° NNW 03:16:19 10° ENE visible
28 Jan - 04:49:34 10° WNW 04:53:13 38° N 04:57:02 10° ENE visible
28 Jan - 06:30:17 10° WNW 06:34:12 53° NNE 06:38:20 10° E daylight
28 Jan - 08:10:44 10° WNW 08:14:43 47° SW 08:18:55 10° SE daylight
29 Jan - 01:33:15 10° SSW 01:36:40 34° SE 01:40:10 10° ENE night (unlit)
29 Jan - 03:13:16 10° W 03:17:00 58° NNW 03:20:53 10° ENE visible
29 Jan - 04:54:17 10° WNW 04:57:56 38° N 05:01:46 10° ENE visible
29 Jan - 06:34:51 10° WNW 06:38:50 68° NNE 06:43:04 10° ESE daylight
29 Jan - 08:15:29 10° WNW 08:19:09 31° SW 08:23:02 10° SSE daylight
30 Jan - 01:37:28 10° SW 01:41:08 54° SSE 01:44:53 10° ENE night (unlit)
30 Jan - 03:18:00 10° W 03:21:40 46° NNW 03:25:28 10° ENE visible
30 Jan - 04:58:58 10° WNW 05:02:39 40° N 05:06:31 10° ENE visible
30 Jan - 06:39:25 10° WNW 06:43:25 89° SSW 06:47:40 10° ESE daylight
30 Jan - 08:20:26 10° W 08:23:34 21° SW 08:26:49 10° S daylight
31 Jan - 00:03:25 10° S 00:05:42 16° SE 00:08:00 10° E night (unlit)
31 Jan - 01:41:54 10° WSW 01:45:39 82° SSE 01:49:29 10° ENE night (unlit)
31 Jan - 03:22:45 10° W 03:26:21 40° N 03:30:06 10° ENE visible
31 Jan - 05:03:35 10° WNW 05:07:20 45° NNE 05:11:17 10° E visible
31 Jan - 06:44:00 10° WNW 06:47:57 63° SSW 06:52:09 10° SE daylight
31 Jan - 08:25:55 10° WSW 08:27:54 13° SW 08:29:56 10° SSW daylight
01 Feb - 00:06:57 10° SSW 00:10:03 25° SE 00:13:10 10° E night (unlit)
01 Feb - 01:46:29 10° WSW 01:50:13 71° NNW 01:54:04 10° ENE night (unlit)
01 Feb - 03:27:30 10° WNW 03:31:04 37° N 03:34:46 10° ENE visible
01 Feb - 05:08:10 10° WNW 05:12:00 55° NNE 05:16:02 10° E visible
01 Feb - 06:48:40 10° WNW 06:52:27 41° SW 06:56:26 10° SE daylight
